Preview of NWS' New Version of Forecast
This preview is not operational and should not be used for support decisions.

Regional Weather Roundup (RWR)

Issued by Philadelphia/Mt Holly (PHI)

                            
000
ASUS41 KPHI 242312
RWRPHI

REGIONAL WEATHER ROUNDUP
NATIONAL WEATHER SERVICE MOUNT HOLLY NJ
700 PM EDT FRI MAY 24 2019

NOTE:  "FAIR" INDICATES FEW OR NO CLOUDS BELOW 12,000 FEET WITH NO
SIGNIFICANT WEATHER AND/OR OBSTRUCTIONS TO VISIBILITY.

 * = STATION DOES NOT REPORT PRECIPITATION (E.G. RAIN, SNOW, ETC.) 
        OR FOG.

NJZ015>026-250000-
SOUTHERN NEW JERSEY
  
CITY           SKY/WX    TMP DP  RH WIND       PRES   REMARKS
POMONA         FAIR      79  53  40 NW14G22   30.00R                  
WILDWOOD*      FAIR      76  57  51 VRB6      30.02R                  
MILLVILLE      FAIR      79  52  38 NW9       30.01R                  
WRIGHTSTOWN    FAIR      75  50  40 N14       30.00R                  
MOUNT HOLLY    FAIR      76  52  43 N12       30.01R                  
TRENTON        FAIR      75  52  44 N13       30.03R                  

$$
NJZ001>014-250000-
NORTHERN NEW JERSEY
  
CITY           SKY/WX    TMP DP  RH WIND       PRES   REMARKS
SUSSEX         FAIR      68  53  58 N8        30.08R                  
ANDOVER*         N/A     68  51  54 VRB7      30.07R                  
MORRISTOWN     MOSUNNY   70  54  56 N13G21    30.05R                  
NEWARK         FAIR      73  49  42 N20G26    30.03R                  
TETERBORO      FAIR      71  50  47 N16G24    30.03R                  
CALDWELL       FAIR      71  50  47 N9G20     30.05R                  
SOMERVILLE     FAIR      73  49  42 N10G21    30.03R                  
ALLAIRE*       FAIR      73  52  47 N13G20    30.04R                  
TOMS RIVER*    FAIR      76  53  44 N13       30.02R                  

$$
PAZ043-044-047-054-055-060>062-066>071-250000-
EASTERN PENNSYLVANIA
  
CITY           SKY/WX    TMP DP  RH WIND       PRES   REMARKS
PHILADELPHIA   PTSUNNY   79  50  36 N14G23    30.02R                  
NORTH PHILA    FAIR      79  49  34 N16       30.03R                  
BLUE BELL*     FAIR      77  50  38 NW8       30.04R                  
DOYLESTOWN     FAIR      75  49  39 N15G22    30.03R                  
QUAKERTOWN*    SUNNY     75  54  46 N10       30.05                   
PERKASIE*      FAIR      73  50  43 N8G16     30.06R                  
POTTSTOWN      FAIR      75  50  41 N8        30.05R                  
LANCASTER      FAIR      77  53  43 NW10      30.04R                  
COATESVILLE    FAIR      75  50  41 N7        30.06R                  
WEST CHESTER   FAIR      77  46  33 NW5       30.04R                  
READING        FAIR      77  54  44 N7        30.03R                  
ALLENTOWN      FAIR      76  51  41 N14       30.05R                  
QN CITY/ALNTWN FAIR      73  52  46 N10G16    30.06R                  
MOUNT POCONO   FAIR      63  49  60 NW20G26   30.10R                  
HAZLETON       FAIR      68  48  49 N7        30.13R                  
LEHIGHTON      FAIR      72  50  46 N5        30.07R                  
WILKES BARRE   FAIR      70  52  52 N10       30.09R                  

$$
DEZALL-MDZ008-012-015-019-020-250000-
DELAWARE AND EASTERN MARYLAND
  
CITY           SKY/WX    TMP DP  RH WIND       PRES   REMARKS
WILMINGTON     FAIR      79  52  38 NW9       30.03R                  
DOVER          MOSUNNY   77  52  40 W5        30.02R                  
CHESWOLD         N/A     77  52  41 VRB6      30.03R                  
GEORGETOWN     FAIR      80  53  39 N6        30.03R                  
EASTON         MOSUNNY   79  54  41 N7        30.07R                  
STEVENSVILLE   FAIR      77  61  57 N7        30.05R                  
ABERDEEN       PTSUNNY   79  50  36 W9        30.04R                  
PATUXENT       FAIR      81  58  45 N7        30.03                   
OCEAN CITY     FAIR      78  51  38 N12G21    30.02R                  
WALLOPS ISLAND FAIR      81  53  37 NW10G18   30.03R                  
CAMBRIDGE      SUNNY     79  54  41 N8        30.04R                  
SALISBURY      FAIR      80  52  37 NW12      30.03R                  

$$
PAZ001-021-NYZ056-072-MDZ011-DCZ001-250000-
OTHER NEARBY LOCATIONS
  
CITY           SKY/WX    TMP DP  RH WIND       PRES   REMARKS
HARRISBURG     PTSUNNY   76  54  46 W10       30.05R                  
STATE COLLEGE  PTSUNNY   70  48  46 N8        30.13R                  
WILLIAMSPORT   FAIR      75  46  35 N6        30.05R                  
BINGHAMTON     CLOUDY    57  48  72 N8        30.14R                  
NEW YORK CITY  FAIR      70  50  49 VRB6G17   30.06R                  
BALTIMORE      PTSUNNY   80  52  37 VRB7      30.04R                  
WASHINGTON DC  PTSUNNY   82  51  34 N14G22    30.05R                  

$$